Location: Ariel
(45.9570°N, 122.5700°W)
Time: 11:28:15
(UTC-07:00)

Transit 2A Rocket - Pass Details

Date: 26 July 2019
Orbit: 590 x 913 km, 66.7° (Epoch: 24 August)

Event Time Altitude Azimuth Distance (km) Brightness Sun altitude
Exits shadow 01:31:08 15° 111° (ESE) 2,187 7.2 -24.5°
Maximum altitude 01:31:38 15° 105° (ESE) 2,173 7.2 -24.5°
Drops below altitude 10° 01:34:48 10° 71° (ENE) 2,485 7.9 -24.5°
Sets 01:38:14 0° 50° (NE) 3,365 9.0 -24.4°
